Time,TemperatureF,DewpointF,PressureIn,WindDirection,WindDirectionDegrees,WindSpeedMPH,WindSpeedGustMPH,Humidity,HourlyPrecipIn,Conditions,Clouds,dailyrainin,SoftwareType,DateUTC
2013-05-30 00:12:00,75.6,70.8,29.92,ESE,112,9.4,-999.0,85,-99.99,,,0.00,Acu-Link.com,2013-05-30 04:12:00,
2013-05-30 00:27:00,75.4,70.6,29.91,ESE,112,14.5,-999.0,85,-99.99,,,0.00,Acu-Link.com,2013-05-30 04:27:00,
2013-05-30 00:42:00,75.6,70.8,29.92,ESE,112,7.8,-999.0,85,-99.99,,,0.00,Acu-Link.com,2013-05-30 04:42:00,
2013-05-30 00:57:00,75.6,71.1,29.92,ESE,112,8.3,-999.0,86,-99.99,,,0.00,Acu-Link.com,2013-05-30 04:57:00,
2013-05-30 01:12:00,75.6,71.1,29.91,ESE,112,8.3,-999.0,86,-99.99,,,0.02,Acu-Link.com,2013-05-30 05:12:00,
2013-05-30 01:28:00,75.4,70.9,29.91,East,90,8.3,-999.0,86,-99.99,,,0.02,Acu-Link.com,2013-05-30 05:28:00,
2013-05-30 01:43:00,75.4,70.9,29.90,ESE,112,8.3,-999.0,86,-99.99,,,0.02,Acu-Link.com,2013-05-30 05:43:00,
2013-05-30 01:58:00,75.4,70.9,29.90,ESE,112,6.3,-999.0,86,-99.99,,,0.02,Acu-Link.com,2013-05-30 05:58:00,
2013-05-30 02:13:00,75.4,70.9,29.91,East,90,7.8,-999.0,86,-99.99,,,0.02,Acu-Link.com,2013-05-30 06:13:00,
2013-05-30 02:29:00,75.4,70.9,29.91,ENE,67,8.9,-999.0,86,-99.99,,,0.02,Acu-Link.com,2013-05-30 06:29:00,
2013-05-30 02:44:00,75.2,70.7,29.91,ESE,112,8.3,-999.0,86,-99.99,,,0.02,Acu-Link.com,2013-05-30 06:44:00,
2013-05-30 02:59:00,75.0,70.5,29.91,ESE,112,6.8,-999.0,86,-99.99,,,0.02,Acu-Link.com,2013-05-30 06:59:00,
2013-05-30 03:14:00,75.0,70.5,29.89,ESE,112,7.8,-999.0,86,-99.99,,,0.02,Acu-Link.com,2013-05-30 07:14:00,
2013-05-30 03:29:00,74.8,70.3,29.89,East,90,8.3,-999.0,86,-99.99,,,0.02,Acu-Link.com,2013-05-30 07:29:00,
2013-05-30 03:44:00,74.8,70.3,29.89,ESE,112,4.7,-999.0,86,-99.99,,,0.02,Acu-Link.com,2013-05-30 07:44:00,
2013-05-30 04:00:00,74.7,70.2,29.89,ESE,112,5.3,-999.0,86,-99.99,,,0.02,Acu-Link.com,2013-05-30 08:00:00,
2013-05-30 04:16:00,74.3,69.8,29.90,ESE,112,5.3,-999.0,86,-99.99,,,0.02,Acu-Link.com,2013-05-30 08:16:00,
2013-05-30 04:31:00,74.3,70.2,29.90,East,90,6.8,-999.0,87,-99.99,,,0.02,Acu-Link.com,2013-05-30 08:31:00,
2013-05-30 04:46:00,74.5,70.4,29.90,ESE,112,7.8,-999.0,87,-99.99,,,0.02,Acu-Link.com,2013-05-30 08:46:00,
2013-05-30 05:01:00,74.3,70.2,29.90,East,90,5.8,-999.0,87,-99.99,,,0.02,Acu-Link.com,2013-05-30 09:01:00,
2013-05-30 05:17:00,74.1,70.3,29.90,NE,45,5.3,-999.0,88,-99.99,,,0.02,Acu-Link.com,2013-05-30 09:17:00,
2013-05-30 05:32:00,73.8,70.0,29.90,NE,45,5.8,-999.0,88,-99.99,,,0.02,Acu-Link.com,2013-05-30 09:32:00,
2013-05-30 05:47:00,73.6,69.8,29.90,East,90,6.8,-999.0,88,-99.99,,,0.02,Acu-Link.com,2013-05-30 09:47:00,
2013-05-30 06:02:00,73.4,69.6,29.91,NE,45,6.3,-999.0,88,-99.99,,,0.02,Acu-Link.com,2013-05-30 10:02:00,
2013-05-30 06:18:00,73.8,70.0,29.90,ESE,112,5.8,-999.0,88,-99.99,,,0.02,Acu-Link.com,2013-05-30 10:18:00,
2013-05-30 06:33:00,73.8,70.0,29.91,ESE,112,6.3,-999.0,88,-99.99,,,0.02,Acu-Link.com,2013-05-30 10:33:00,
2013-05-30 06:48:00,73.9,70.1,29.91,East,90,4.7,-999.0,88,-99.99,,,0.02,Acu-Link.com,2013-05-30 10:48:00,
2013-05-30 07:03:00,74.5,70.7,29.92,ESE,112,5.3,-999.0,88,-99.99,,,0.02,Acu-Link.com,2013-05-30 11:03:00,
2013-05-30 07:18:00,75.7,70.9,29.92,East,90,9.4,-999.0,85,-99.99,,,0.02,Acu-Link.com,2013-05-30 11:18:00,
2013-05-30 07:34:00,75.7,70.2,29.93,East,90,5.8,-999.0,83,-99.99,,,0.02,Acu-Link.com,2013-05-30 11:34:00,
2013-05-30 07:49:00,75.4,70.2,29.93,ESE,112,9.4,-999.0,84,-99.99,,,0.05,Acu-Link.com,2013-05-30 11:49:00,
2013-05-30 08:04:00,77.4,70.4,29.93,ESE,112,8.3,-999.0,79,-99.99,,,0.05,Acu-Link.com,2013-05-30 12:04:00,
2013-05-30 08:19:00,77.0,68.8,29.94,East,90,5.3,-999.0,76,-99.99,,,0.05,Acu-Link.com,2013-05-30 12:19:00,
2013-05-30 08:35:00,78.4,70.6,29.94,ESE,112,8.9,-999.0,77,-99.99,,,0.05,Acu-Link.com,2013-05-30 12:35:00,
2013-05-30 08:50:00,77.7,70.7,29.94,ESE,112,8.3,-999.0,79,-99.99,,,0.05,Acu-Link.com,2013-05-30 12:50:00,
2013-05-30 09:05:00,79.2,71.7,29.94,ESE,112,8.3,-999.0,78,-99.99,,,0.05,Acu-Link.com,2013-05-30 13:05:00,
2013-05-30 09:20:00,79.5,71.3,29.94,East,90,8.9,-999.0,76,-99.99,,,0.05,Acu-Link.com,2013-05-30 13:20:00,
2013-05-30 09:35:00,80.6,71.5,29.93,ESE,112,7.8,-999.0,74,-99.99,,,0.08,Acu-Link.com,2013-05-30 13:35:00,
2013-05-30 09:50:00,81.1,70.8,29.93,ESE,112,10.9,-999.0,71,-99.99,,,0.10,Acu-Link.com,2013-05-30 13:50:00,
2013-05-30 10:05:00,81.1,70.4,29.93,ESE,112,9.4,-999.0,70,-99.99,,,0.19,Acu-Link.com,2013-05-30 14:05:00,
2013-05-30 10:20:00,82.8,71.1,29.92,East,90,14.5,-999.0,68,-99.99,,,0.21,Acu-Link.com,2013-05-30 14:20:00,
2013-05-30 10:35:00,83.1,71.4,29.93,ESE,112,15.5,-999.0,68,-99.99,,,0.22,Acu-Link.com,2013-05-30 14:35:00,
2013-05-30 10:50:00,82.8,70.3,29.92,ESE,112,9.4,-999.0,66,-99.99,,,0.24,Acu-Link.com,2013-05-30 14:50:00,
2013-05-30 11:05:00,82.8,69.8,29.92,East,90,9.4,-999.0,65,-99.99,,,0.26,Acu-Link.com,2013-05-30 15:05:00,
2013-05-30 11:20:00,77.7,68.7,29.94,ESE,112,14.5,-999.0,74,-99.99,,,0.49,Acu-Link.com,2013-05-30 15:20:00,
2013-05-30 11:35:00,81.1,70.4,29.92,ESE,112,8.9,-999.0,70,-99.99,,,0.59,Acu-Link.com,2013-05-30 15:35:00,
2013-05-30 11:51:00,82.6,70.5,29.92,ESE,112,15.5,-999.0,67,-99.99,,,0.70,Acu-Link.com,2013-05-30 15:51:00,
2013-05-30 12:06:00,84.2,71.6,29.92,ESE,112,8.9,-999.0,66,-99.99,,,0.72,Acu-Link.com,2013-05-30 16:06:00,
2013-05-30 12:21:00,85.5,71.4,29.92,ESE,112,9.4,-999.0,63,-99.99,,,0.79,Acu-Link.com,2013-05-30 16:21:00,
2013-05-30 12:36:00,82.8,69.8,29.92,ESE,112,9.4,-999.0,65,-99.99,,,1.02,Acu-Link.com,2013-05-30 16:36:00,
2013-05-30 12:51:00,77.9,68.9,29.93,SE,135,13.0,-999.0,74,-99.99,,,1.08,Acu-Link.com,2013-05-30 16:51:00,
2013-05-30 13:06:00,75.9,69.6,29.94,ESE,112,5.8,-999.0,81,-99.99,,,1.27,Acu-Link.com,2013-05-30 17:06:00,
2013-05-30 13:21:00,75.4,69.9,29.93,SE,135,6.3,-999.0,83,-99.99,,,1.32,Acu-Link.com,2013-05-30 17:21:00,
2013-05-30 13:36:00,75.2,70.0,29.92,ESE,112,10.9,-999.0,84,-99.99,,,1.35,Acu-Link.com,2013-05-30 17:36:00,
2013-05-30 13:52:00,75.9,70.0,29.92,ESE,112,14.0,-999.0,82,-99.99,,,1.39,Acu-Link.com,2013-05-30 17:52:00,
2013-05-30 14:07:00,77.5,70.8,29.92,ESE,112,17.1,-999.0,80,-99.99,,,1.44,Acu-Link.com,2013-05-30 18:07:00,
2013-05-30 14:22:00,80.8,71.3,29.91,ESE,112,9.4,-999.0,73,-99.99,,,1.56,Acu-Link.com,2013-05-30 18:22:00,
2013-05-30 14:37:00,81.7,69.7,29.90,ESE,112,19.7,-999.0,67,-99.99,,,1.64,Acu-Link.com,2013-05-30 18:37:00,
2013-05-30 14:52:00,82.6,70.1,29.90,ESE,112,16.1,-999.0,66,-99.99,,,1.78,Acu-Link.com,2013-05-30 18:52:00,
2013-05-30 15:07:00,83.7,71.1,29.89,ESE,112,9.4,-999.0,66,-99.99,,,1.92,Acu-Link.com,2013-05-30 19:07:00,
2013-05-30 15:22:00,82.9,68.0,29.89,East,90,9.4,-999.0,61,-99.99,,,2.19,Acu-Link.com,2013-05-30 19:22:00,
2013-05-30 15:38:00,82.4,69.0,29.89,ESE,112,18.1,-999.0,64,-99.99,,,2.26,Acu-Link.com,2013-05-30 19:38:00,
2013-05-30 15:53:00,81.5,69.5,29.89,East,90,9.4,-999.0,67,-99.99,,,2.45,Acu-Link.com,2013-05-30 19:53:00,
2013-05-30 16:08:00,82.2,69.7,29.88,ESE,112,9.9,-999.0,66,-99.99,,,2.58,Acu-Link.com,2013-05-30 20:08:00,
2013-05-30 16:23:00,83.1,70.1,29.87,ESE,112,11.4,-999.0,65,-99.99,,,2.66,Acu-Link.com,2013-05-30 20:23:00,
2013-05-30 16:39:00,82.4,69.0,29.88,ESE,112,10.9,-999.0,64,-99.99,,,2.80,Acu-Link.com,2013-05-30 20:39:00,
2013-05-30 16:54:00,81.3,68.4,29.87,ESE,112,14.0,-999.0,65,-99.99,,,2.92,Acu-Link.com,2013-05-30 20:54:00,
2013-05-30 17:09:00,82.2,68.3,29.86,East,90,9.9,-999.0,63,-99.99,,,3.10,Acu-Link.com,2013-05-30 21:09:00,
2013-05-30 17:24:00,83.3,67.9,29.86,East,90,19.7,-999.0,60,-99.99,,,3.19,Acu-Link.com,2013-05-30 21:24:00,
2013-05-30 17:39:00,82.8,67.9,29.86,ESE,112,18.6,-999.0,61,-99.99,,,3.35,Acu-Link.com,2013-05-30 21:39:00,
2013-05-30 17:54:00,82.6,68.2,29.86,ESE,112,11.4,-999.0,62,-99.99,,,3.45,Acu-Link.com,2013-05-30 21:54:00,
2013-05-30 18:09:00,82.4,68.0,29.86,ESE,112,13.0,-999.0,62,-99.99,,,3.62,Acu-Link.com,2013-05-30 22:09:00,
2013-05-30 18:24:00,82.2,68.3,29.87,ESE,112,9.9,-999.0,63,-99.99,,,3.68,Acu-Link.com,2013-05-30 22:24:00,
2013-05-30 18:39:00,81.9,68.0,29.87,NE,45,9.4,-999.0,63,-99.99,,,3.83,Acu-Link.com,2013-05-30 22:39:00,
2013-05-30 18:54:00,81.5,67.2,29.87,ESE,112,10.4,-999.0,62,-99.99,,,3.84,Acu-Link.com,2013-05-30 22:54:00,
2013-05-30 19:09:00,81.1,67.3,29.88,ESE,112,9.9,-999.0,63,-99.99,,,3.89,Acu-Link.com,2013-05-30 23:09:00,
2013-05-30 19:24:00,80.8,66.5,29.88,ESE,112,9.4,-999.0,62,-99.99,,,4.10,Acu-Link.com,2013-05-30 23:24:00,
2013-05-30 19:39:00,80.6,66.8,29.89,ESE,112,7.8,-999.0,63,-99.99,,,4.28,Acu-Link.com,2013-05-30 23:39:00,
2013-05-30 19:54:00,80.4,66.6,29.89,ESE,112,9.4,-999.0,63,-99.99,,,4.32,Acu-Link.com,2013-05-30 23:54:00,
2013-05-30 20:09:00,79.9,67.1,29.89,ESE,112,6.3,-999.0,65,-99.99,,,4.33,Acu-Link.com,2013-05-31 00:09:00,
2013-05-30 20:24:00,79.5,67.1,29.90,ESE,112,8.3,-999.0,66,-99.99,,,4.37,Acu-Link.com,2013-05-31 00:24:00,
2013-05-30 20:40:00,79.0,67.1,29.90,East,90,8.9,-999.0,67,-99.99,,,4.39,Acu-Link.com,2013-05-31 00:40:00,
2013-05-30 20:55:00,78.8,66.9,29.90,ENE,67,8.9,-999.0,67,-99.99,,,4.43,Acu-Link.com,2013-05-31 00:55:00,
2013-05-30 21:10:00,78.4,66.9,29.90,ENE,67,9.4,-999.0,68,-99.99,,,4.45,Acu-Link.com,2013-05-31 01:10:00,
2013-05-30 21:25:00,77.9,66.9,29.90,ESE,112,9.4,-999.0,69,-99.99,,,4.45,Acu-Link.com,2013-05-31 01:25:00,
2013-05-30 21:40:00,77.7,67.1,29.92,ESE,112,8.9,-999.0,70,-99.99,,,4.45,Acu-Link.com,2013-05-31 01:40:00,
2013-05-30 21:55:00,77.4,67.2,29.91,ESE,112,8.9,-999.0,71,-99.99,,,4.45,Acu-Link.com,2013-05-31 01:55:00,
2013-05-30 22:10:00,77.2,67.5,29.91,ESE,112,6.8,-999.0,72,-99.99,,,4.50,Acu-Link.com,2013-05-31 02:10:00,
2013-05-30 22:25:00,76.6,66.9,29.92,ESE,112,6.8,-999.0,72,-99.99,,,4.50,Acu-Link.com,2013-05-31 02:25:00,
2013-05-30 22:40:00,76.5,67.2,29.92,ESE,112,8.3,-999.0,73,-99.99,,,4.50,Acu-Link.com,2013-05-31 02:40:00,
2013-05-30 22:55:00,76.3,67.0,29.92,ESE,112,6.3,-999.0,73,-99.99,,,4.51,Acu-Link.com,2013-05-31 02:55:00,
2013-05-30 23:10:00,75.9,67.0,29.93,East,90,7.8,-999.0,74,-99.99,,,4.51,Acu-Link.com,2013-05-31 03:10:00,
2013-05-30 23:25:00,75.7,66.8,29.92,East,90,7.8,-999.0,74,-99.99,,,4.51,Acu-Link.com,2013-05-31 03:25:00,
2013-05-30 23:40:00,75.6,66.7,29.93,ESE,112,6.8,-999.0,74,-99.99,,,4.51,Acu-Link.com,2013-05-31 03:40:00,
2013-05-30 23:55:00,75.6,66.7,29.93,ENE,67,7.8,-999.0,74,-99.99,,,4.51,Acu-Link.com,2013-05-31 03:55:00,